[[{"header":{"parameterUnit":"m.s-1","parameterCategory":1,"la1":30.2991,"la2":30.254,"lo1":-89.0895,"lo2":-89.0444,"dy":0.0017,"dx":0.0017,"nx":28,"ny":28,"refTime":"2024-12-16T09:00:00:Z","depth":0,"parameterNumber":2,"parameterNumberName":"U-component_of_WINDS"},"data":[0,0,0,0,0,0,0,0,0,0,0,0,0,0,0,0,0,0,0,0,0,0,0,0,0,0,0,0,0,0,0,0,0,0,0,0,0,0,0,0,0,0,0,0,0,0,0,0,0,0,0,0,0,0,0,0,0,0,-1.1876,-1.1876,0,-1.1854,-1.1854,-1.1853,-1.1815,-1.1814,-1.1814,-1.1813,-1.179,-1.179,-1.179,0,0,0,0,0,0,0,0,0,0,0,0,0,-1.1885,-1.1885,-1.1876,-1.1876,-1.1875,-1.1854,-1.1854,-1.1853,-1.1815,-1.1814,-1.1813,-1.1813,-1.179,-1.179,-1.179,0,0,0,0,0,0,0,0,0,0,0,0,0,-1.1874,-1.1885,-1.1876,-1.1854,-1.1851,-1.1854,-1.1854,-1.1853,-1.1815,-1.1814,-1.1813,-1.1812,-1.179,-1.179,-1.179,-1.1813,0,0,-1.1791,-1.1791,0,0,0,0,0,0,0,0,-1.1875,-1.1874,-1.1857,-1.1855,-1.1853,-1.1836,-1.1849,-1.184,-1.1816,-1.1829,-1.1813,-1.1812,-1.1806,-1.1805,-1.1803,-1.1812,-1.1811,-1.1791,-1.1791,-1.1791,-1.1791,0,0,0,0,0,0,0,-1.1875,-1.1874,-1.1867,-1.1857,-1.1854,-1.1845,-1.1842,-1.1847,-1.1824,-1.1828,-1.1825,-1.1823,-1.1805,-1.1803,-1.1802,-1.181,-1.1791,-1.1791,-1.1791,-1.1791,-1.1837,-1.1838,0,0,0,0,0,0,-1.1879,-1.1875,-1.1868,-1.1866,-1.1861,-1.1846,-1.1843,-1.1843,-1.1824,-1.182,-1.1824,-1.1821,-1.1804,-1.1802,-1.1802,-1.1826,-1.1791,-1.1791,-1.1791,-1.1836,-1.1837,-1.1838,0,0,0,0,0,0,-1.188,-1.1879,-1.1869,-1.187,-1.1868,-1.1847,-1.1847,-1.1843,-1.1841,-1.1821,-1.1817,-1.1826,-1.1803,-1.1801,-1.181,-1.1825,-1.1791,-1.1791,-1.1834,-1.1836,-1.1838,-1.1876,0,0,0,0,0,0,-1.188,-1.1879,-1.1887,-1.1871,-1.1868,-1.1878,-1.1848,-1.1843,-1.1841,-1.1838,-1.1822,-1.1818,-1.1802,-1.181,-1.1811,-1.1825,-1.1791,-1.1833,-1.1835,-1.1837,-1.1874,-1.1879,-1.1884,0,0,0,0,0,-1.1881,-1.1899,-1.1888,-1.1887,-1.1878,-1.1879,-1.1877,-1.1858,-1.1843,-1.1851,-1.1838,-1.1819,-1.1824,-1.1812,-1.1811,-1.1826,-1.1832,-1.1834,-1.1837,-1.1871,-1.1878,-1.1884,0,0,0,0,0,0,-1.1917,-1.1896,-1.1884,-1.1897,-1.189,-1.1872,-1.1881,-1.1866,-1.1862,-1.1859,-1.1835,-1.1832,-1.1844,-1.1836,-1.1823,-1.1847,-1.1825,-1.1828,-1.1851,-1.1858,-1.1863,-1.1864,-1.1791,0,0,0,0,0,-1.1927,-1.193,-1.1911,-1.1925,-1.1922,-1.1903,-1.1902,-1.1888,-1.188,-1.1876,-1.1864,-1.1857,-1.1857,-1.1857,-1.1856,-1.1873,-1.1869,-1.1883,-1.1888,-1.1893,-1.1895,-1.1904,-1.1909,-1.1847,-1.1847,-1.1847,0,0,-1.1947,-1.1936,-1.1939,-1.1932,-1.1925,-1.1928,-1.19,-1.1905,-1.1907,-1.1877,-1.1884,-1.1876,-1.1866,-1.1879,-1.1885,-1.1873,-1.1912,-1.1896,-1.1899,-1.1899,-1.1907,-1.1913,-1.1918,-1.1848,-1.1848,-1.1848,0,0,-1.1985,-1.1977,-1.1987,-1.1981,-1.1971,-1.1958,-1.1961,-1.1946,-1.1939,-1.1947,-1.1924,-1.1927,-1.1927,-1.1921,-1.1918,-1.1956,-1.1938,-1.1957,-1.1983,-1.1992,-1.1997,-1.2001,-1.2014,-1.2019,-1.1959,-1.1959,-1.1959,0,-1.2011,-1.2014,-1.1995,-1.2001,-1.1999,-1.1973,-1.1984,-1.1979,-1.1968,-1.1968,-1.1955,-1.1956,-1.1947,-1.1959,-1.1968,-1.1967,-1.1969,-1.1957,-1.1998,-1.2002,-1.2005,-1.2018,-1.2023,-1.1961,-1.1961,-1.1961,-1.1961,0,-1.2047,-1.205,-1.206,-1.2051,-1.205,-1.2059,-1.2041,-1.2042,-1.2029,-1.2018,-1.2026,-1.2016,-1.2012,-1.2014,-1.2001,-1.2025,-1.2018,-1.2002,-1.1979,-1.2014,-1.2025,-1.2029,-1.1965,-1.1964,-1.1963,-1.1963,0,0,-1.2104,-1.2086,-1.209,-1.2086,-1.2074,-1.2076,-1.2084,-1.2081,-1.2083,-1.2078,-1.2083,-1.2085,-1.2071,-1.2068,-1.2054,-1.2062,-1.2093,-1.2045,-1.2045,-1.2054,-1.2118,-1.2129,-1.2134,-1.2082,-1.2083,-1.2083,-1.2118,0,-1.2139,-1.215,-1.2134,-1.2149,-1.2152,-1.2129,-1.2136,-1.213,-1.212,-1.2121,-1.2111,-1.2112,-1.2094,-1.2092,-1.2099,-1.2087,-1.2105,-1.2085,-1.2087,-1.2087,-1.2088,-1.214,-1.2151,-1.2185,-1.2123,-1.2123,-1.2124,0,-1.2179,-1.2176,-1.2192,-1.218,-1.2181,-1.2187,-1.2184,-1.2186,-1.2178,-1.2171,-1.2168,-1.2152,-1.216,-1.2139,-1.2149,-1.2136,-1.2136,-1.2131,-1.2131,-1.2129,-1.2106,-1.2139,-1.2195,-1.22,-1.2131,-1.213,-1.213,0,-1.2219,-1.2219,-1.2229,-1.2227,-1.2213,-1.2218,-1.2213,-1.2204,-1.2204,-1.2201,-1.2201,-1.2199,-1.2198,-1.2197,-1.2181,-1.2168,-1.2193,-1.2171,-1.2186,-1.2187,-1.2191,-1.2191,-1.2247,-1.2194,-1.2194,-1.2194,-1.2193,0,-1.2258,-1.2268,-1.2247,-1.2252,-1.2264,-1.2246,-1.2258,-1.225,-1.2243,-1.2247,-1.2228,-1.2232,-1.2212,-1.2214,-1.2202,-1.2212,-1.2212,-1.2206,-1.2202,-1.2207,-1.2207,-1.2205,-1.2202,-1.2195,-1.2195,-1.2194,-1.2194,0,-1.2302,-1.2289,-1.2298,-1.2285,-1.2282,-1.2291,-1.228,-1.2285,-1.2275,-1.2281,-1.2281,-1.2265,-1.2267,-1.2252,-1.2251,-1.2243,-1.2258,-1.2251,-1.2261,-1.2258,-1.2274,-1.2272,-1.233,-1.2336,-1.228,-1.2281,-1.2281,0,-1.2327,-1.2335,-1.2323,-1.2325,-1.2321,-1.2323,-1.2323,-1.2306,-1.2307,-1.23,-1.2306,-1.2307,-1.2306,-1.2311,-1.2299,-1.2299,-1.2291,-1.2311,-1.229,-1.2295,-1.229,-1.2289,-1.229,-1.2315,-1.2316,-1.2316,-1.2317,0,-1.2373,-1.2366,-1.2366,-1.2365,-1.2366,-1.2364,-1.236,-1.2363,-1.2345,-1.2347,-1.2349,-1.2348,-1.2348,-1.2349,-1.2346,-1.2341,-1.2326,-1.2324,-1.2327,-1.2331,-1.2335,-1.2332,-1.2271,-1.2322,-1.2321,-1.2321,-1.2321,-1.232,-1.2407,-1.2413,-1.2406,-1.2408,-1.2404,-1.2402,-1.2406,-1.2398,-1.2399,-1.2397,-1.2388,-1.2392,-1.2386,-1.2381,-1.2377,-1.238,-1.2371,-1.2376,-1.2377,-1.2378,-1.238,-1.2337,-1.238,-1.238,-1.238,-1.238,-1.238,0,-1.2451,-1.2446,-1.2447,-1.2444,-1.2445,-1.2432,-1.2429,-1.2431,-1.2434,-1.243,-1.2431,-1.2433,-1.2435,-1.2424,-1.2424,-1.2429,-1.2422,-1.2429,-1.2428,-1.2427,-1.239,-1.2386,-1.2435,-1.2435,-1.2435,-1.2435,-1.2435,-1.2435,-1.2473,-1.2482,-1.2475,-1.2483,-1.2478,-1.2482,-1.2481,-1.2479,-1.2476,-1.248,-1.2481,-1.2475,-1.2468,-1.2468,-1.2468,-1.2465,-1.2466,-1.2475,-1.247,-1.2435,-1.2429,-1.2424,-1.2421,-1.2476,-1.2476,-1.2507,-1.2507,-1.2507]},{"header":{"parameterUnit":"m.s-1","parameterCategory":1,"la1":30.2991,"la2":30.254,"lo1":-89.0895,"lo2":-89.0444,"dy":0.0017,"dx":0.0017,"nx":28,"ny":28,"refTime":"2024-12-16T09:00:00:Z","depth":0,"parameterNumber":3,"parameterNumberName":"V-component_of_WINDS"},"data":[0,0,0,0,0,0,0,0,0,0,0,0,0,0,0,0,0,0,0,0,0,0,0,0,0,0,0,0,0,0,0,0,0,0,0,0,0,0,0,0,0,0,0,0,0,0,0,0,0,0,0,0,0,0,0,0,0,0,-0.2245,-0.2245,0,-0.2271,-0.2272,-0.2272,-0.225,-0.2249,-0.2248,-0.2247,-0.2276,-0.2277,-0.2279,0,0,0,0,0,0,0,0,0,0,0,0,0,-0.2176,-0.2177,-0.2245,-0.2245,-0.2245,-0.2271,-0.2272,-0.2272,-0.225,-0.2249,-0.2247,-0.2246,-0.2275,-0.2277,-0.2279,0,0,0,0,0,0,0,0,0,0,0,0,0,-0.2204,-0.2178,-0.2245,-0.2237,-0.2237,-0.2271,-0.2272,-0.2272,-0.225,-0.2249,-0.2247,-0.2246,-0.2275,-0.2277,-0.228,-0.2323,0,0,-0.2287,-0.2288,0,0,0,0,0,0,0,0,-0.2203,-0.2207,-0.2238,-0.2238,-0.2238,-0.2256,-0.2258,-0.2289,-0.225,-0.2245,-0.2247,-0.2245,-0.227,-0.2273,-0.2281,-0.2324,-0.2326,-0.2287,-0.2289,-0.229,-0.2291,0,0,0,0,0,0,0,-0.2201,-0.2206,-0.2255,-0.2239,-0.2238,-0.2233,-0.2236,-0.2264,-0.2265,-0.2245,-0.2244,-0.2247,-0.227,-0.2279,-0.2282,-0.2326,-0.2287,-0.2289,-0.2291,-0.2292,-0.2404,-0.2406,0,0,0,0,0,0,-0.2199,-0.2204,-0.2255,-0.2256,-0.2216,-0.2235,-0.2238,-0.2251,-0.2265,-0.2266,-0.2248,-0.2246,-0.2275,-0.2279,-0.2283,-0.2333,-0.229,-0.2292,-0.2294,-0.2403,-0.2404,-0.2406,0,0,0,0,0,0,-0.2198,-0.2204,-0.2253,-0.223,-0.2236,-0.2238,-0.2253,-0.2253,-0.2261,-0.2267,-0.2267,-0.2257,-0.2274,-0.2279,-0.2313,-0.2334,-0.2293,-0.2296,-0.2401,-0.2403,-0.2405,-0.2436,0,0,0,0,0,0,-0.2196,-0.2204,-0.222,-0.223,-0.2237,-0.2283,-0.2254,-0.2254,-0.2266,-0.2263,-0.2276,-0.2276,-0.2274,-0.2309,-0.2315,-0.2337,-0.2297,-0.2399,-0.2402,-0.2405,-0.2433,-0.2439,-0.2444,0,0,0,0,0,-0.2194,-0.2229,-0.2221,-0.2228,-0.2258,-0.2284,-0.2288,-0.2284,-0.2267,-0.2284,-0.2287,-0.2276,-0.2331,-0.2313,-0.2319,-0.2342,-0.2398,-0.2401,-0.2404,-0.2431,-0.2438,-0.2444,0,0,0,0,0,0,-0.2223,-0.223,-0.2222,-0.2261,-0.2272,-0.228,-0.2301,-0.2292,-0.2308,-0.2305,-0.23,-0.2303,-0.2338,-0.2343,-0.2323,-0.2384,-0.2361,-0.2366,-0.2379,-0.2386,-0.2392,-0.239,-0.23,0,0,0,0,0,-0.2233,-0.2254,-0.2259,-0.2294,-0.2299,-0.2299,-0.2311,-0.2306,-0.2318,-0.2323,-0.2328,-0.234,-0.236,-0.2373,-0.2392,-0.2433,-0.2435,-0.2452,-0.2458,-0.2462,-0.2467,-0.2488,-0.2495,-0.2417,-0.2417,-0.2417,0,0,-0.2257,-0.2263,-0.2277,-0.2299,-0.2307,-0.2329,-0.2304,-0.2328,-0.2344,-0.2326,-0.2358,-0.2362,-0.2375,-0.2412,-0.2429,-0.2418,-0.2488,-0.2467,-0.247,-0.2472,-0.2492,-0.25,-0.2506,-0.2419,-0.2419,-0.2419,0,0,-0.2309,-0.2316,-0.2345,-0.2353,-0.2364,-0.2364,-0.237,-0.238,-0.2382,-0.2413,-0.24,-0.2419,-0.2453,-0.2462,-0.2472,-0.2525,-0.2515,-0.2531,-0.2561,-0.2581,-0.2587,-0.2593,-0.2612,-0.2618,-0.2536,-0.2536,-0.2536,0,-0.2337,-0.2368,-0.2361,-0.2385,-0.2395,-0.2379,-0.2408,-0.2416,-0.2434,-0.2441,-0.2428,-0.247,-0.2477,-0.2516,-0.2529,-0.2537,-0.2544,-0.253,-0.2587,-0.2592,-0.2597,-0.2615,-0.2622,-0.2538,-0.2537,-0.2537,-0.2537,0,-0.24,-0.2422,-0.2444,-0.246,-0.2472,-0.2499,-0.2496,-0.2509,-0.2503,-0.2504,-0.2535,-0.2543,-0.2562,-0.2571,-0.2566,-0.2608,-0.2601,-0.2588,-0.2565,-0.2607,-0.2623,-0.263,-0.254,-0.254,-0.2539,-0.2539,0,0,-0.2474,-0.2484,-0.2492,-0.2498,-0.2509,-0.2526,-0.2551,-0.2569,-0.258,-0.2592,-0.2613,-0.2641,-0.2628,-0.2639,-0.2634,-0.2652,-0.2693,-0.2637,-0.2637,-0.2647,-0.274,-0.275,-0.2758,-0.2686,-0.2687,-0.2688,-0.2739,0,-0.2527,-0.257,-0.2563,-0.2605,-0.2625,-0.2609,-0.263,-0.2639,-0.264,-0.2657,-0.2658,-0.2678,-0.2659,-0.2665,-0.2682,-0.2685,-0.2712,-0.2681,-0.2706,-0.2707,-0.2703,-0.2767,-0.2778,-0.2826,-0.2745,-0.2746,-0.2747,0,-0.2595,-0.2608,-0.2651,-0.2657,-0.2665,-0.2685,-0.2699,-0.2716,-0.2725,-0.2724,-0.2735,-0.2726,-0.2751,-0.2727,-0.2761,-0.274,-0.275,-0.2752,-0.2754,-0.2756,-0.273,-0.2771,-0.2841,-0.2848,-0.2757,-0.2756,-0.2756,0,-0.2644,-0.2672,-0.2701,-0.2707,-0.2715,-0.2729,-0.2733,-0.2741,-0.2751,-0.2764,-0.2771,-0.2787,-0.2796,-0.2808,-0.2804,-0.2787,-0.2839,-0.2815,-0.2839,-0.2839,-0.2851,-0.2851,-0.2923,-0.2857,-0.2857,-0.2857,-0.2856,0,-0.2703,-0.2731,-0.2723,-0.2741,-0.2771,-0.2762,-0.2792,-0.2794,-0.2801,-0.2819,-0.2806,-0.2823,-0.2816,-0.2833,-0.283,-0.2858,-0.2862,-0.2862,-0.2861,-0.2864,-0.2864,-0.287,-0.2867,-0.2858,-0.2858,-0.2858,-0.2857,0,-0.2764,-0.276,-0.279,-0.2794,-0.2796,-0.2817,-0.2821,-0.2838,-0.2836,-0.2859,-0.2864,-0.2863,-0.2882,-0.2878,-0.29,-0.2897,-0.2933,-0.2927,-0.2929,-0.2928,-0.2952,-0.295,-0.3032,-0.3042,-0.2969,-0.297,-0.297,0,-0.2802,-0.2823,-0.2828,-0.2839,-0.2843,-0.2861,-0.2871,-0.2863,-0.2874,-0.2885,-0.29,-0.2918,-0.2931,-0.2962,-0.2963,-0.2979,-0.2974,-0.3001,-0.2977,-0.2978,-0.2974,-0.2973,-0.2975,-0.3007,-0.3008,-0.3008,-0.3009,0,-0.2871,-0.2868,-0.2882,-0.2896,-0.2908,-0.2918,-0.2928,-0.2937,-0.293,-0.2943,-0.2961,-0.2972,-0.2992,-0.301,-0.3024,-0.3028,-0.3018,-0.3016,-0.3023,-0.3026,-0.3026,-0.3026,-0.2943,-0.3015,-0.3014,-0.3014,-0.3014,-0.3013,-0.2922,-0.2939,-0.2945,-0.2961,-0.2967,-0.2975,-0.2991,-0.299,-0.3005,-0.3021,-0.3015,-0.3036,-0.3043,-0.3061,-0.3067,-0.3083,-0.3073,-0.3082,-0.3085,-0.3087,-0.309,-0.3023,-0.3086,-0.3086,-0.3085,-0.3085,-0.3085,0,-0.299,-0.2993,-0.3008,-0.302,-0.3033,-0.302,-0.3029,-0.304,-0.3059,-0.3066,-0.3079,-0.3099,-0.3116,-0.3117,-0.3132,-0.3145,-0.314,-0.3149,-0.3148,-0.3149,-0.3099,-0.3091,-0.3153,-0.3153,-0.3153,-0.3153,-0.3152,-0.3152,-0.3027,-0.3054,-0.3051,-0.3081,-0.3083,-0.3103,-0.3109,-0.3116,-0.3122,-0.3145,-0.3158,-0.3158,-0.3163,-0.3178,-0.3192,-0.3192,-0.3198,-0.3209,-0.3207,-0.316,-0.3153,-0.3147,-0.314,-0.321,-0.321,-0.3257,-0.3257,-0.3257]}]]